Time,TemperatureF,DewpointF,PressureIn,WindDirection,WindDirectionDegrees,WindSpeedMPH,WindSpeedGustMPH,Humidity,HourlyPrecipIn,Conditions,Clouds,dailyrainin,SoftwareType,DateUTC
2013-10-05 00:02:00,47.9,43.9,29.70,South,169,3.0,3.0,86,0.00,,,0.00,WeatherCatV1.21B27,2013-10-05 05:02:00,
2013-10-05 00:07:00,47.7,43.7,29.71,South,169,0.0,0.0,86,0.00,,,0.00,WeatherCatV1.21B27,2013-10-05 05:07:00,
2013-10-05 00:12:00,47.5,43.5,29.71,SSE,168,0.0,3.0,86,0.00,,,0.00,WeatherCatV1.21B27,2013-10-05 05:12:00,
2013-10-05 00:17:00,47.2,43.2,29.70,SSE,168,0.0,3.0,86,0.00,,,0.00,WeatherCatV1.21B27,2013-10-05 05:17:00,
2013-10-05 00:22:00,47.0,43.3,29.71,SE,138,1.0,2.0,87,0.00,,,0.00,WeatherCatV1.21B27,2013-10-05 05:22:00,
2013-10-05 00:27:00,46.8,43.1,29.71,SE,138,2.0,2.0,87,0.00,,,0.00,WeatherCatV1.21B27,2013-10-05 05:27:00,
2013-10-05 00:32:00,46.5,42.8,29.71,SE,138,0.0,0.0,87,0.00,,,0.00,WeatherCatV1.21B27,2013-10-05 05:32:00,
2013-10-05 00:37:00,46.3,42.9,29.71,SSE,152,2.0,5.0,88,0.00,,,0.00,WeatherCatV1.21B27,2013-10-05 05:37:00,
2013-10-05 00:42:00,46.3,43.2,29.71,ESE,116,0.0,0.0,89,0.00,,,0.00,WeatherCatV1.21B27,2013-10-05 05:42:00,
2013-10-05 00:47:00,46.4,43.3,29.72,SE,135,2.0,4.0,89,0.00,,,0.00,WeatherCatV1.21B27,2013-10-05 05:47:00,
2013-10-05 00:52:00,46.5,43.1,29.71,SSE,168,3.0,5.0,88,0.00,,,0.00,WeatherCatV1.21B27,2013-10-05 05:52:00,
2013-10-05 00:57:00,46.4,42.7,29.71,SE,125,0.0,5.0,87,0.00,,,0.00,WeatherCatV1.21B27,2013-10-05 05:57:00,
2013-10-05 01:02:00,46.2,42.5,29.71,South,174,2.0,5.0,87,0.00,,,0.00,WeatherCatV1.21B27,2013-10-05 06:02:00,
2013-10-05 01:07:00,46.0,42.3,29.71,SSE,168,1.0,5.0,87,0.00,,,0.00,WeatherCatV1.21B27,2013-10-05 06:07:00,
2013-10-05 01:12:00,45.6,41.7,29.71,SSW,206,1.0,8.0,86,0.00,,,0.00,WeatherCatV1.21B27,2013-10-05 06:12:00,
2013-10-05 01:17:00,45.3,41.4,29.72,SSE,151,0.0,9.0,86,0.00,,,0.00,WeatherCatV1.21B27,2013-10-05 06:17:00,
2013-10-05 01:22:00,44.9,40.4,29.71,SSE,151,6.0,7.0,84,0.00,,,0.00,WeatherCatV1.21B27,2013-10-05 06:22:00,
2013-10-05 01:27:00,44.4,39.6,29.71,South,178,0.0,3.0,83,0.00,,,0.00,WeatherCatV1.21B27,2013-10-05 06:27:00,
2013-10-05 01:32:00,44.0,39.2,29.71,SSE,166,0.0,5.0,83,0.00,,,0.00,WeatherCatV1.21B27,2013-10-05 06:32:00,
2013-10-05 01:37:00,43.5,39.0,29.72,SSE,153,1.0,2.0,84,0.00,,,0.00,WeatherCatV1.21B27,2013-10-05 06:37:00,
2013-10-05 01:42:00,43.1,38.6,29.72,SSW,192,0.0,4.0,84,0.00,,,0.00,WeatherCatV1.21B27,2013-10-05 06:42:00,
2013-10-05 01:47:00,42.8,38.6,29.71,South,170,0.0,5.0,85,0.00,,,0.00,WeatherCatV1.21B27,2013-10-05 06:47:00,
2013-10-05 01:52:00,42.6,38.7,29.72,SE,128,0.0,4.0,86,0.00,,,0.00,WeatherCatV1.21B27,2013-10-05 06:52:00,
2013-10-05 01:57:00,42.3,38.4,29.72,SSE,163,0.0,2.0,86,0.00,,,0.00,WeatherCatV1.21B27,2013-10-05 06:57:00,
2013-10-05 02:02:00,42.1,37.9,29.72,ESE,123,1.0,5.0,85,0.00,,,0.00,WeatherCatV1.21B27,2013-10-05 07:02:00,
2013-10-05 02:07:00,41.9,37.7,29.72,SE,131,4.0,5.0,85,0.00,,,0.00,WeatherCatV1.21B27,2013-10-05 07:07:00,
2013-10-05 02:12:00,41.7,37.5,29.73,South,176,0.0,3.0,85,0.00,,,0.00,WeatherCatV1.21B27,2013-10-05 07:12:00,
2013-10-05 02:17:00,41.5,37.3,29.73,ESE,108,1.0,3.0,85,0.00,,,0.00,WeatherCatV1.21B27,2013-10-05 07:17:00,
2013-10-05 02:22:00,41.3,37.1,29.73,SE,132,1.0,2.0,85,0.00,,,0.00,WeatherCatV1.21B27,2013-10-05 07:22:00,
2013-10-05 02:27:00,41.2,37.0,29.73,SSE,147,1.0,5.0,85,0.00,,,0.00,WeatherCatV1.21B27,2013-10-05 07:27:00,
2013-10-05 02:32:00,41.0,36.5,29.73,SE,127,4.0,6.0,84,0.00,,,0.00,WeatherCatV1.21B27,2013-10-05 07:32:00,
2013-10-05 02:37:00,40.8,36.3,29.74,SE,129,0.0,4.0,84,0.00,,,0.00,WeatherCatV1.21B27,2013-10-05 07:37:00,
2013-10-05 02:42:00,40.7,36.5,29.73,SE,126,0.0,3.0,85,0.00,,,0.00,WeatherCatV1.21B27,2013-10-05 07:42:00,
2013-10-05 02:47:00,40.6,36.5,29.73,ESE,112,2.0,7.0,85,0.00,,,0.00,WeatherCatV1.21B27,2013-10-05 07:47:00,
2013-10-05 02:52:00,40.5,36.3,29.73,ESE,120,5.0,7.0,85,0.00,,,0.00,WeatherCatV1.21B27,2013-10-05 07:52:00,
2013-10-05 02:57:00,40.4,36.2,29.73,SE,128,1.0,3.0,85,0.00,,,0.00,WeatherCatV1.21B27,2013-10-05 07:57:00,
2013-10-05 03:02:00,40.3,36.2,29.73,SE,137,0.0,5.0,85,0.00,,,0.00,WeatherCatV1.21B27,2013-10-05 08:02:00,
2013-10-05 03:07:00,40.2,36.1,29.72,SE,143,0.0,4.0,85,0.00,,,0.00,WeatherCatV1.21B27,2013-10-05 08:07:00,
2013-10-05 03:12:00,40.2,36.1,29.72,SE,126,2.0,7.0,85,0.00,,,0.00,WeatherCatV1.21B27,2013-10-05 08:12:00,
2013-10-05 03:17:00,40.1,36.0,29.72,ESE,114,0.0,7.0,85,0.00,,,0.00,WeatherCatV1.21B27,2013-10-05 08:17:00,
2013-10-05 03:22:00,39.9,35.8,29.72,SSE,149,2.0,3.0,85,0.00,,,0.00,WeatherCatV1.21B27,2013-10-05 08:22:00,
2013-10-05 03:27:00,39.8,35.7,29.72,SE,128,0.0,4.0,85,0.00,,,0.00,WeatherCatV1.21B27,2013-10-05 08:27:00,
2013-10-05 03:32:00,39.7,35.6,29.72,SE,129,1.0,5.0,85,0.00,,,0.00,WeatherCatV1.21B27,2013-10-05 08:32:00,
2013-10-05 03:37:00,39.6,35.5,29.72,ESE,123,3.0,11.0,85,0.00,,,0.00,WeatherCatV1.21B27,2013-10-05 08:37:00,
2013-10-05 03:42:00,39.5,35.4,29.72,SE,137,1.0,7.0,85,0.00,,,0.00,WeatherCatV1.21B27,2013-10-05 08:42:00,
2013-10-05 03:47:00,39.4,35.3,29.71,South,170,1.0,5.0,85,0.00,,,0.00,WeatherCatV1.21B27,2013-10-05 08:47:00,
2013-10-05 03:52:00,39.4,35.3,29.71,SE,145,0.0,4.0,85,0.00,,,0.00,WeatherCatV1.21B27,2013-10-05 08:52:00,
2013-10-05 03:57:00,39.3,35.2,29.71,SE,136,0.0,9.0,85,0.00,,,0.00,WeatherCatV1.21B27,2013-10-05 08:57:00,
2013-10-05 04:02:00,39.2,35.1,29.71,ESE,122,1.0,4.0,85,0.00,,,0.00,WeatherCatV1.21B27,2013-10-05 09:02:00,
2013-10-05 04:07:00,39.1,35.0,29.71,SE,124,2.0,7.0,85,0.00,,,0.00,WeatherCatV1.21B27,2013-10-05 09:07:00,
2013-10-05 04:12:00,39.0,34.9,29.71,SE,133,2.0,8.0,85,0.00,,,0.00,WeatherCatV1.21B27,2013-10-05 09:12:00,
2013-10-05 04:17:00,38.9,34.8,29.71,ESE,122,1.0,8.0,85,0.00,,,0.00,WeatherCatV1.21B27,2013-10-05 09:17:00,
2013-10-05 04:22:00,38.8,34.7,29.71,SE,143,4.0,6.0,85,0.00,,,0.00,WeatherCatV1.21B27,2013-10-05 09:22:00,
2013-10-05 04:27:00,38.8,35.0,29.71,SE,128,1.0,4.0,86,0.00,,,0.00,WeatherCatV1.21B27,2013-10-05 09:27:00,
2013-10-05 04:32:00,38.7,34.6,29.71,SE,127,3.0,3.0,85,0.00,,,0.00,WeatherCatV1.21B27,2013-10-05 09:32:00,
2013-10-05 04:37:00,38.7,34.6,29.71,ESE,120,0.0,8.0,85,0.00,,,0.00,WeatherCatV1.21B27,2013-10-05 09:37:00,
2013-10-05 04:42:00,38.6,34.5,29.71,SE,128,2.0,9.0,85,0.00,,,0.00,WeatherCatV1.21B27,2013-10-05 09:42:00,
2013-10-05 04:47:00,38.6,34.5,29.71,ESE,122,8.0,8.0,85,0.00,,,0.00,WeatherCatV1.21B27,2013-10-05 09:47:00,
2013-10-05 04:52:00,38.6,34.5,29.71,ESE,118,0.0,8.0,85,0.00,,,0.00,WeatherCatV1.21B27,2013-10-05 09:52:00,
2013-10-05 04:57:00,38.6,34.5,29.71,SE,125,0.0,5.0,85,0.00,,,0.00,WeatherCatV1.21B27,2013-10-05 09:57:00,
2013-10-05 05:02:00,38.6,34.2,29.71,South,180,1.0,11.0,84,0.00,,,0.00,WeatherCatV1.21B27,2013-10-05 10:02:00,
2013-10-05 05:07:00,38.7,34.3,29.71,SE,128,0.0,3.0,84,0.00,,,0.00,WeatherCatV1.21B27,2013-10-05 10:07:00,
2013-10-05 05:12:00,38.8,34.4,29.71,SSE,150,1.0,4.0,84,0.00,,,0.00,WeatherCatV1.21B27,2013-10-05 10:12:00,
2013-10-05 05:17:00,38.8,34.4,29.71,SSE,152,2.0,2.0,84,0.00,,,0.00,WeatherCatV1.21B27,2013-10-05 10:17:00,
2013-10-05 05:22:00,38.8,34.4,29.71,SE,144,1.0,5.0,84,0.00,,,0.00,WeatherCatV1.21B27,2013-10-05 10:22:00,
2013-10-05 05:27:00,38.7,34.3,29.71,ESE,115,2.0,7.0,84,0.00,,,0.00,WeatherCatV1.21B27,2013-10-05 10:27:00,
2013-10-05 05:32:00,38.7,34.3,29.71,ESE,118,3.0,5.0,84,0.00,,,0.00,WeatherCatV1.21B27,2013-10-05 10:32:00,
2013-10-05 05:37:00,38.7,34.3,29.71,SE,125,0.0,8.0,84,0.00,,,0.00,WeatherCatV1.21B27,2013-10-05 10:37:00,
2013-10-05 05:42:00,38.6,34.2,29.71,ESE,113,1.0,7.0,84,0.00,,,0.00,WeatherCatV1.21B27,2013-10-05 10:42:00,
2013-10-05 05:47:00,38.7,34.3,29.70,SE,126,1.0,3.0,84,0.00,,,0.00,WeatherCatV1.21B27,2013-10-05 10:47:00,
2013-10-05 05:52:00,38.7,34.3,29.70,ESE,122,1.0,4.0,84,0.00,,,0.00,WeatherCatV1.21B27,2013-10-05 10:52:00,
2013-10-05 05:57:00,38.7,34.3,29.70,ESE,112,5.0,5.0,84,0.00,,,0.00,WeatherCatV1.21B27,2013-10-05 10:57:00,
2013-10-05 06:02:00,38.8,34.4,29.70,SSE,161,0.0,4.0,84,0.00,,,0.00,WeatherCatV1.21B27,2013-10-05 11:02:00,
2013-10-05 06:07:00,38.9,34.5,29.70,SE,124,0.0,8.0,84,0.00,,,0.00,WeatherCatV1.21B27,2013-10-05 11:07:00,
2013-10-05 06:12:00,38.8,34.4,29.70,SE,128,1.0,7.0,84,0.00,,,0.00,WeatherCatV1.21B27,2013-10-05 11:12:00,
2013-10-05 06:17:00,38.7,34.3,29.70,SSW,197,1.0,5.0,84,0.00,,,0.00,WeatherCatV1.21B27,2013-10-05 11:17:00,
2013-10-05 06:22:00,38.6,34.2,29.69,SSE,158,0.0,4.0,84,0.00,,,0.00,WeatherCatV1.21B27,2013-10-05 11:22:00,
2013-10-05 06:27:00,38.5,34.1,29.70,ESE,110,0.0,4.0,84,0.00,,,0.00,WeatherCatV1.21B27,2013-10-05 11:27:00,
2013-10-05 06:32:00,38.5,34.4,29.70,SE,124,2.0,4.0,85,0.00,,,0.00,WeatherCatV1.21B27,2013-10-05 11:32:00,
2013-10-05 06:37:00,38.5,34.1,29.69,SE,126,2.0,5.0,84,0.00,,,0.00,WeatherCatV1.21B27,2013-10-05 11:37:00,
2013-10-05 06:42:00,38.6,34.2,29.69,SE,130,2.0,9.0,84,0.00,,,0.00,WeatherCatV1.21B27,2013-10-05 11:42:00,
2013-10-05 06:47:00,38.6,34.2,29.69,SE,144,0.0,5.0,84,0.00,,,0.00,WeatherCatV1.21B27,2013-10-05 11:47:00,
2013-10-05 06:52:00,38.4,34.0,29.68,SE,126,3.0,5.0,84,0.00,,,0.00,WeatherCatV1.21B27,2013-10-05 11:52:00,
2013-10-05 06:57:00,38.2,33.8,29.68,ESE,122,3.0,9.0,84,0.00,,,0.00,WeatherCatV1.21B27,2013-10-05 11:57:00,
2013-10-05 07:02:00,38.0,33.9,29.68,SE,126,0.0,9.0,85,0.00,,,0.00,WeatherCatV1.21B27,2013-10-05 12:02:00,
2013-10-05 07:07:00,37.9,33.8,29.68,ESE,119,1.0,2.0,85,0.00,,,0.00,WeatherCatV1.21B27,2013-10-05 12:07:00,
2013-10-05 07:12:00,37.7,33.6,29.68,ESE,122,3.0,5.0,85,0.00,,,0.00,WeatherCatV1.21B27,2013-10-05 12:12:00,
2013-10-05 07:17:00,37.5,33.4,29.68,South,178,0.0,2.0,85,0.00,,,0.00,WeatherCatV1.21B27,2013-10-05 12:17:00,
2013-10-05 07:22:00,37.4,33.3,29.68,ESE,108,0.0,3.0,85,0.00,,,0.00,WeatherCatV1.21B27,2013-10-05 12:22:00,
2013-10-05 07:27:00,37.3,33.5,29.69,SSE,153,7.0,7.0,86,0.00,,,0.00,WeatherCatV1.21B27,2013-10-05 12:27:00,
2013-10-05 07:32:00,37.5,33.7,29.68,SE,130,4.0,8.0,86,0.00,,,0.00,WeatherCatV1.21B27,2013-10-05 12:32:00,
2013-10-05 07:37:00,37.7,33.9,29.69,SE,127,1.0,8.0,86,0.00,,,0.00,WeatherCatV1.21B27,2013-10-05 12:37:00,
2013-10-05 07:42:00,37.9,34.1,29.69,SSE,166,3.0,5.0,86,0.00,,,0.00,WeatherCatV1.21B27,2013-10-05 12:42:00,
2013-10-05 07:47:00,38.1,34.0,29.69,ESE,120,0.0,7.0,85,0.00,,,0.00,WeatherCatV1.21B27,2013-10-05 12:47:00,
2013-10-05 07:52:00,38.3,34.2,29.70,SSE,150,0.0,6.0,85,0.00,,,0.00,WeatherCatV1.21B27,2013-10-05 12:52:00,
2013-10-05 07:57:00,38.4,34.3,29.69,SE,144,4.0,7.0,85,0.00,,,0.00,WeatherCatV1.21B27,2013-10-05 12:57:00,
2013-10-05 08:02:00,38.6,34.5,29.70,ESE,106,3.0,9.0,85,0.00,,,0.00,WeatherCatV1.21B27,2013-10-05 13:02:00,
2013-10-05 08:07:00,38.6,34.2,29.70,ESE,110,7.0,9.0,84,0.00,,,0.00,WeatherCatV1.21B27,2013-10-05 13:07:00,
2013-10-05 08:12:00,38.7,34.3,29.69,SE,131,2.0,5.0,84,0.00,,,0.00,WeatherCatV1.21B27,2013-10-05 13:12:00,
2013-10-05 08:17:00,38.8,34.4,29.69,SE,138,0.0,3.0,84,0.00,,,0.00,WeatherCatV1.21B27,2013-10-05 13:17:00,
2013-10-05 08:22:00,38.9,34.5,29.69,ESE,123,0.0,8.0,84,0.00,,,0.00,WeatherCatV1.21B27,2013-10-05 13:22:00,
2013-10-05 08:27:00,39.1,34.7,29.69,South,181,0.0,9.0,84,0.00,,,0.00,WeatherCatV1.21B27,2013-10-05 13:27:00,
2013-10-05 08:32:00,39.2,34.8,29.69,ESE,121,1.0,5.0,84,0.00,,,0.00,WeatherCatV1.21B27,2013-10-05 13:32:00,
2013-10-05 08:37:00,39.3,34.9,29.68,East,100,1.0,1.0,84,0.00,,,0.00,WeatherCatV1.21B27,2013-10-05 13:37:00,
2013-10-05 08:42:00,39.5,35.1,29.68,SE,135,0.0,5.0,84,0.00,,,0.00,WeatherCatV1.21B27,2013-10-05 13:42:00,
2013-10-05 08:47:00,39.6,35.2,29.68,SE,124,1.0,3.0,84,0.00,,,0.00,WeatherCatV1.21B27,2013-10-05 13:47:00,
2013-10-05 08:52:00,39.8,35.1,29.67,ESE,115,1.0,4.0,83,0.00,,,0.00,WeatherCatV1.21B27,2013-10-05 13:52:00,
2013-10-05 08:57:00,40.0,35.3,29.68,SSE,155,0.0,5.0,83,0.00,,,0.00,WeatherCatV1.21B27,2013-10-05 13:57:00,
2013-10-05 09:02:00,40.3,35.5,29.68,SE,124,4.0,7.0,83,0.00,,,0.00,WeatherCatV1.21B27,2013-10-05 14:02:00,
2013-10-05 09:07:00,40.6,35.5,29.68,ESE,121,1.0,5.0,82,0.00,,,0.00,WeatherCatV1.21B27,2013-10-05 14:07:00,
2013-10-05 09:12:00,40.8,35.7,29.68,ESE,112,2.0,5.0,82,0.00,,,0.00,WeatherCatV1.21B27,2013-10-05 14:12:00,
2013-10-05 09:17:00,41.0,35.6,29.69,ESE,114,1.0,7.0,81,0.00,,,0.00,WeatherCatV1.21B27,2013-10-05 14:17:00,
2013-10-05 09:22:00,41.1,35.7,29.69,SE,128,1.0,3.0,81,0.00,,,0.00,WeatherCatV1.21B27,2013-10-05 14:22:00,
2013-10-05 09:27:00,41.3,35.9,29.69,East,94,7.0,10.0,81,0.00,,,0.00,WeatherCatV1.21B27,2013-10-05 14:27:00,
2013-10-05 09:32:00,41.6,35.9,29.69,SE,131,1.0,5.0,80,0.00,,,0.00,WeatherCatV1.21B27,2013-10-05 14:32:00,
2013-10-05 09:37:00,41.9,35.9,29.69,SSE,153,2.0,6.0,79,0.00,,,0.00,WeatherCatV1.21B27,2013-10-05 14:37:00,
2013-10-05 09:42:00,42.1,35.7,29.69,SSE,150,7.0,7.0,78,0.00,,,0.00,WeatherCatV1.21B27,2013-10-05 14:42:00,
2013-10-05 09:47:00,42.4,36.4,29.69,SSE,164,2.0,7.0,79,0.00,,,0.00,WeatherCatV1.21B27,2013-10-05 14:47:00,
2013-10-05 09:52:00,42.5,36.1,29.69,South,176,4.0,8.0,78,0.00,,,0.00,WeatherCatV1.21B27,2013-10-05 14:52:00,
2013-10-05 09:57:00,42.6,36.2,29.69,SE,131,0.0,4.0,78,0.00,,,0.00,WeatherCatV1.21B27,2013-10-05 14:57:00,
2013-10-05 10:02:00,42.8,36.4,29.69,ESE,107,10.0,10.0,78,0.00,,,0.00,WeatherCatV1.21B27,2013-10-05 15:02:00,
2013-10-05 10:07:00,42.7,36.3,29.69,WSW,254,2.0,6.0,78,0.00,,,0.00,WeatherCatV1.21B27,2013-10-05 15:07:00,
2013-10-05 10:12:00,42.8,36.4,29.69,South,187,3.0,4.0,78,0.00,,,0.00,WeatherCatV1.21B27,2013-10-05 15:12:00,
2013-10-05 10:17:00,42.8,36.1,29.69,ESE,108,5.0,12.0,77,0.00,,,0.00,WeatherCatV1.21B27,2013-10-05 15:17:00,
2013-10-05 10:22:00,42.8,36.4,29.69,SE,130,2.0,10.0,78,0.00,,,0.00,WeatherCatV1.21B27,2013-10-05 15:22:00,
2013-10-05 10:27:00,42.9,36.5,29.69,SSE,160,4.0,8.0,78,0.00,,,0.00,WeatherCatV1.21B27,2013-10-05 15:27:00,
2013-10-05 10:32:00,42.8,36.1,29.69,SSE,158,0.0,6.0,77,0.00,,,0.00,WeatherCatV1.21B27,2013-10-05 15:32:00,
2013-10-05 10:37:00,42.9,36.5,29.69,SSE,168,5.0,8.0,78,0.00,,,0.00,WeatherCatV1.21B27,2013-10-05 15:37:00,
2013-10-05 10:42:00,43.1,36.7,29.69,SE,139,2.0,4.0,78,0.00,,,0.00,WeatherCatV1.21B27,2013-10-05 15:42:00,
2013-10-05 10:47:00,43.3,36.9,29.70,ESE,118,0.0,4.0,78,0.00,,,0.00,WeatherCatV1.21B27,2013-10-05 15:47:00,
2013-10-05 10:52:00,43.5,37.1,29.70,SE,138,2.0,4.0,78,0.00,,,0.00,WeatherCatV1.21B27,2013-10-05 15:52:00,
2013-10-05 10:57:00,43.6,37.2,29.69,SE,130,3.0,4.0,78,0.00,,,0.00,WeatherCatV1.21B27,2013-10-05 15:57:00,
2013-10-05 11:02:00,43.6,37.2,29.70,SE,124,0.0,10.0,78,0.00,,,0.00,WeatherCatV1.21B27,2013-10-05 16:02:00,
2013-10-05 11:07:00,43.6,37.2,29.70,ESE,116,1.0,8.0,78,0.00,,,0.00,WeatherCatV1.21B27,2013-10-05 16:07:00,
2013-10-05 11:12:00,43.7,37.3,29.70,ESE,120,10.0,10.0,78,0.00,,,0.00,WeatherCatV1.21B27,2013-10-05 16:12:00,
2013-10-05 11:17:00,43.6,37.2,29.70,SSE,147,7.0,7.0,78,0.00,,,0.00,WeatherCatV1.21B27,2013-10-05 16:17:00,
2013-10-05 11:22:00,43.7,37.3,29.70,NNE,33,5.0,7.0,78,0.00,,,0.00,WeatherCatV1.21B27,2013-10-05 16:22:00,
2013-10-05 11:27:00,43.7,37.3,29.70,ESE,117,4.0,6.0,78,0.00,,,0.00,WeatherCatV1.21B27,2013-10-05 16:27:00,
2013-10-05 11:32:00,43.9,37.8,29.70,WSW,247,5.0,5.0,79,0.00,,,0.00,WeatherCatV1.21B27,2013-10-05 16:32:00,
2013-10-05 11:37:00,44.2,37.8,29.70,SE,132,2.0,7.0,78,0.00,,,0.00,WeatherCatV1.21B27,2013-10-05 16:37:00,
2013-10-05 11:42:00,44.2,37.5,29.70,SE,135,3.0,10.0,77,0.00,,,0.00,WeatherCatV1.21B27,2013-10-05 16:42:00,
2013-10-05 11:47:00,44.1,37.7,29.70,SE,125,2.0,8.0,78,0.00,,,0.00,WeatherCatV1.21B27,2013-10-05 16:47:00,
2013-10-05 11:52:00,44.0,37.9,29.70,ESE,123,4.0,9.0,79,0.00,,,0.00,WeatherCatV1.21B27,2013-10-05 16:52:00,
2013-10-05 11:57:00,44.1,38.0,29.70,SW,214,3.0,9.0,79,0.00,,,0.00,WeatherCatV1.21B27,2013-10-05 16:57:00,
2013-10-05 12:02:00,43.9,38.1,29.71,SE,125,2.0,10.0,80,0.00,,,0.00,WeatherCatV1.21B27,2013-10-05 17:02:00,
2013-10-05 12:07:00,43.9,38.1,29.71,SE,137,9.0,10.0,80,0.00,,,0.00,WeatherCatV1.21B27,2013-10-05 17:07:00,
2013-10-05 12:25:00,44.1,38.7,29.70,South,169,2.0,3.0,81,0.00,,,0.00,WeatherCatV1.21B27,2013-10-05 17:25:00,
2013-10-05 12:30:00,44.3,38.5,29.70,ESE,117,1.0,7.0,80,0.00,,,0.00,WeatherCatV1.21B27,2013-10-05 17:30:00,
2013-10-05 12:35:00,44.6,38.8,29.70,SE,145,0.0,8.0,80,0.00,,,0.00,WeatherCatV1.21B27,2013-10-05 17:35:00,
2013-10-05 12:40:00,44.8,38.7,29.71,South,169,4.0,5.0,79,0.00,,,0.00,WeatherCatV1.21B27,2013-10-05 17:40:00,
2013-10-05 12:46:00,44.9,38.5,29.70,South,176,2.0,4.0,78,0.00,,,0.00,WeatherCatV1.21B27,2013-10-05 17:46:00,
2013-10-05 12:51:00,44.9,38.8,29.70,SE,132,4.0,5.0,79,0.00,,,0.00,WeatherCatV1.21B27,2013-10-05 17:51:00,
2013-10-05 12:56:00,45.0,38.6,29.70,South,174,1.0,5.0,78,0.00,,,0.00,WeatherCatV1.21B27,2013-10-05 17:56:00,
2013-10-05 13:01:00,45.0,38.9,29.70,ESE,121,4.0,5.0,79,0.00,,,0.00,WeatherCatV1.21B27,2013-10-05 18:01:00,
2013-10-05 13:06:00,45.1,38.7,29.71,South,171,2.0,8.0,78,0.00,,,0.00,WeatherCatV1.21B27,2013-10-05 18:06:00,
2013-10-05 13:11:00,45.2,38.8,29.70,East,99,6.0,8.0,78,0.00,,,0.00,WeatherCatV1.21B27,2013-10-05 18:11:00,
2013-10-05 13:16:00,45.2,39.1,29.70,SW,226,4.0,7.0,79,0.00,,,0.00,WeatherCatV1.21B27,2013-10-05 18:16:00,
2013-10-05 13:21:00,45.2,39.1,29.70,ESE,112,7.0,7.0,79,0.00,,,0.00,WeatherCatV1.21B27,2013-10-05 18:21:00,
2013-10-05 13:26:00,45.2,38.8,29.70,ESE,110,4.0,8.0,78,0.00,,,0.00,WeatherCatV1.21B27,2013-10-05 18:26:00,
2013-10-05 13:31:00,45.2,39.1,29.70,ESE,106,9.0,9.0,79,0.00,,,0.00,WeatherCatV1.21B27,2013-10-05 18:31:00,
2013-10-05 13:36:00,45.0,38.9,29.70,SE,143,5.0,14.0,79,0.00,,,0.00,WeatherCatV1.21B27,2013-10-05 18:36:00,
2013-10-05 13:41:00,44.9,39.1,29.70,ESE,113,4.0,8.0,80,0.00,,,0.00,WeatherCatV1.21B27,2013-10-05 18:41:00,
2013-10-05 13:46:00,44.8,39.7,29.70,East,96,8.0,11.0,82,0.00,,,0.00,WeatherCatV1.21B27,2013-10-05 18:46:00,
2013-10-05 13:51:00,44.6,39.8,29.70,SE,131,2.0,3.0,83,0.00,,,0.00,WeatherCatV1.21B27,2013-10-05 18:51:00,
2013-10-05 13:56:00,44.6,39.8,29.69,ESE,119,2.0,7.0,83,0.00,,,0.00,WeatherCatV1.21B27,2013-10-05 18:56:00,
2013-10-05 14:01:00,44.8,39.3,29.69,ESE,111,2.0,10.0,81,0.00,,,0.00,WeatherCatV1.21B27,2013-10-05 19:01:00,
2013-10-05 14:06:00,45.1,39.3,29.68,SE,124,5.0,8.0,80,0.00,,,0.00,WeatherCatV1.21B27,2013-10-05 19:06:00,
2013-10-05 14:11:00,45.2,39.1,29.68,ESE,115,5.0,10.0,79,0.00,,,0.00,WeatherCatV1.21B27,2013-10-05 19:11:00,
2013-10-05 14:16:00,45.3,39.5,29.68,South,171,2.0,5.0,80,0.00,,,0.00,WeatherCatV1.21B27,2013-10-05 19:16:00,
2013-10-05 14:21:00,45.3,39.5,29.68,SSE,151,6.0,11.0,80,0.00,,,0.00,WeatherCatV1.21B27,2013-10-05 19:21:00,
2013-10-05 14:26:00,45.2,39.4,29.68,SE,124,1.0,4.0,80,0.00,,,0.00,WeatherCatV1.21B27,2013-10-05 19:26:00,
2013-10-05 14:31:00,45.1,39.0,29.68,SSE,154,1.0,8.0,79,0.00,,,0.00,WeatherCatV1.21B27,2013-10-05 19:31:00,
2013-10-05 14:36:00,45.2,39.1,29.68,SSE,165,4.0,10.0,79,0.00,,,0.00,WeatherCatV1.21B27,2013-10-05 19:36:00,
2013-10-05 14:41:00,45.4,39.3,29.68,SSE,161,2.0,5.0,79,0.00,,,0.00,WeatherCatV1.21B27,2013-10-05 19:41:00,
2013-10-05 14:46:00,45.6,38.8,29.68,SE,132,5.0,13.0,77,0.00,,,0.00,WeatherCatV1.21B27,2013-10-05 19:46:00,
2013-10-05 14:51:00,45.6,38.8,29.68,SE,140,6.0,6.0,77,0.00,,,0.00,WeatherCatV1.21B27,2013-10-05 19:51:00,
2013-10-05 14:56:00,45.7,39.2,29.68,SE,124,2.0,4.0,78,0.00,,,0.00,WeatherCatV1.21B27,2013-10-05 19:56:00,
2013-10-05 15:01:00,46.0,39.2,29.68,SE,131,4.0,8.0,77,0.00,,,0.00,WeatherCatV1.21B27,2013-10-05 20:01:00,
2013-10-05 15:06:00,46.2,39.1,29.67,East,100,0.0,3.0,76,0.00,,,0.00,WeatherCatV1.21B27,2013-10-05 20:06:00,
2013-10-05 15:11:00,46.4,39.6,29.67,ESE,123,3.0,3.0,77,0.00,,,0.00,WeatherCatV1.21B27,2013-10-05 20:11:00,
2013-10-05 15:16:00,46.4,39.2,29.68,SE,125,2.0,9.0,76,0.00,,,0.00,WeatherCatV1.21B27,2013-10-05 20:16:00,
2013-10-05 15:21:00,46.4,39.6,29.68,South,171,0.0,3.0,77,0.00,,,0.00,WeatherCatV1.21B27,2013-10-05 20:21:00,
2013-10-05 15:26:00,46.4,39.2,29.68,ESE,112,2.0,13.0,76,0.00,,,0.00,WeatherCatV1.21B27,2013-10-05 20:26:00,
2013-10-05 15:31:00,46.4,39.2,29.67,SE,132,1.0,5.0,76,0.00,,,0.00,WeatherCatV1.21B27,2013-10-05 20:31:00,
2013-10-05 15:36:00,46.5,39.3,29.67,ESE,123,0.0,5.0,76,0.00,,,0.00,WeatherCatV1.21B27,2013-10-05 20:36:00,
2013-10-05 15:41:00,46.6,39.1,29.68,SE,140,0.0,3.0,75,0.00,,,0.00,WeatherCatV1.21B27,2013-10-05 20:41:00,
2013-10-05 15:46:00,46.8,39.3,29.68,ESE,118,0.0,4.0,75,0.00,,,0.00,WeatherCatV1.21B27,2013-10-05 20:46:00,
2013-10-05 15:51:00,46.8,39.0,29.67,ESE,117,1.0,9.0,74,0.00,,,0.00,WeatherCatV1.21B27,2013-10-05 20:51:00,
2013-10-05 15:56:00,46.7,38.9,29.67,SE,135,0.0,3.0,74,0.00,,,0.00,WeatherCatV1.21B27,2013-10-05 20:56:00,
2013-10-05 16:01:00,46.7,39.2,29.68,South,178,0.0,3.0,75,0.00,,,0.00,WeatherCatV1.21B27,2013-10-05 21:01:00,
2013-10-05 16:06:00,46.7,39.2,29.68,NNW,334,3.0,3.0,75,0.00,,,0.00,WeatherCatV1.21B27,2013-10-05 21:06:00,
2013-10-05 16:11:00,46.5,39.0,29.68,SSW,210,3.0,5.0,75,0.00,,,0.00,WeatherCatV1.21B27,2013-10-05 21:11:00,
2013-10-05 16:16:00,46.4,39.2,29.68,South,190,1.0,6.0,76,0.00,,,0.00,WeatherCatV1.21B27,2013-10-05 21:16:00,
2013-10-05 16:21:00,46.3,38.8,29.68,SE,131,3.0,13.0,75,0.00,,,0.00,WeatherCatV1.21B27,2013-10-05 21:21:00,
2013-10-05 16:26:00,46.2,39.1,29.68,SE,139,3.0,9.0,76,0.00,,,0.00,WeatherCatV1.21B27,2013-10-05 21:26:00,
2013-10-05 16:31:00,46.2,39.4,29.68,SSE,160,4.0,5.0,77,0.00,,,0.00,WeatherCatV1.21B27,2013-10-05 21:31:00,
2013-10-05 16:36:00,46.3,39.5,29.67,South,169,1.0,6.0,77,0.00,,,0.00,WeatherCatV1.21B27,2013-10-05 21:36:00,
2013-10-05 16:41:00,46.3,39.2,29.67,South,174,4.0,7.0,76,0.00,,,0.00,WeatherCatV1.21B27,2013-10-05 21:41:00,
2013-10-05 16:46:00,46.3,39.2,29.67,SE,134,0.0,4.0,76,0.00,,,0.00,WeatherCatV1.21B27,2013-10-05 21:46:00,
2013-10-05 16:51:00,46.1,39.3,29.68,SSW,211,3.0,8.0,77,0.00,,,0.00,WeatherCatV1.21B27,2013-10-05 21:51:00,
2013-10-05 16:56:00,45.8,39.7,29.68,South,169,3.0,4.0,79,0.00,,,0.00,WeatherCatV1.21B27,2013-10-05 21:56:00,
2013-10-05 17:01:00,45.6,39.8,29.68,SW,221,3.0,8.0,80,0.00,,,0.00,WeatherCatV1.21B27,2013-10-05 22:01:00,
2013-10-05 17:06:00,45.2,40.0,29.68,South,170,4.0,11.0,82,0.00,,,0.00,WeatherCatV1.21B27,2013-10-05 22:06:00,
2013-10-05 17:11:00,44.8,40.3,29.68,SE,141,2.0,7.0,84,0.00,,,0.00,WeatherCatV1.21B27,2013-10-05 22:11:00,
2013-10-05 17:16:00,44.6,39.8,29.68,SSE,158,1.0,3.0,83,0.00,,,0.00,WeatherCatV1.21B27,2013-10-05 22:16:00,
2013-10-05 17:21:00,44.5,40.0,29.68,SSE,158,0.0,1.0,84,0.00,,,0.00,WeatherCatV1.21B27,2013-10-05 22:21:00,
2013-10-05 17:26:00,44.5,40.0,29.68,SSE,157,0.0,3.0,84,0.00,,,0.00,WeatherCatV1.21B27,2013-10-05 22:26:00,
2013-10-05 17:31:00,44.5,40.0,29.68,SSW,192,2.0,5.0,84,0.00,,,0.00,WeatherCatV1.21B27,2013-10-05 22:31:00,
2013-10-05 17:36:00,44.5,40.0,29.68,SSE,158,0.0,1.0,84,0.00,,,0.00,WeatherCatV1.21B27,2013-10-05 22:36:00,
2013-10-05 17:41:00,44.5,40.3,29.67,South,189,0.0,3.0,85,0.00,,,0.00,WeatherCatV1.21B27,2013-10-05 22:41:00,
2013-10-05 17:46:00,44.5,40.6,29.68,South,189,0.0,1.0,86,0.00,,,0.00,WeatherCatV1.21B27,2013-10-05 22:46:00,
2013-10-05 17:51:00,44.5,40.3,29.68,South,170,0.0,2.0,85,0.00,,,0.00,WeatherCatV1.21B27,2013-10-05 22:51:00,
2013-10-05 17:56:00,44.4,40.5,29.68,ESE,112,0.0,5.0,86,0.00,,,0.00,WeatherCatV1.21B27,2013-10-05 22:56:00,
2013-10-05 18:01:00,44.3,40.7,29.67,SSE,163,2.0,4.0,87,0.00,,,0.00,WeatherCatV1.21B27,2013-10-05 23:01:00,
2013-10-05 18:06:00,44.1,40.5,29.68,SSE,166,0.0,1.0,87,0.00,,,0.00,WeatherCatV1.21B27,2013-10-05 23:06:00,
2013-10-05 18:11:00,44.0,40.4,29.68,SSE,166,0.0,2.0,87,0.00,,,0.00,WeatherCatV1.21B27,2013-10-05 23:11:00,
2013-10-05 18:16:00,44.0,40.7,29.67,SE,145,1.0,1.0,88,0.00,,,0.00,WeatherCatV1.21B27,2013-10-05 23:16:00,
2013-10-05 18:21:00,43.8,40.2,29.68,SE,130,0.0,1.0,87,0.00,,,0.00,WeatherCatV1.21B27,2013-10-05 23:21:00,
2013-10-05 18:26:00,43.8,40.2,29.68,SE,130,0.0,1.0,87,0.00,,,0.00,WeatherCatV1.21B27,2013-10-05 23:26:00,
2013-10-05 18:31:00,43.8,40.5,29.68,SE,130,0.0,0.0,88,0.00,,,0.00,WeatherCatV1.21B27,2013-10-05 23:31:00,
2013-10-05 18:36:00,43.8,40.2,29.68,SE,131,0.0,0.0,87,0.00,,,0.00,WeatherCatV1.21B27,2013-10-05 23:36:00,
2013-10-05 18:41:00,43.8,40.2,29.68,SE,129,0.0,3.0,87,0.00,,,0.00,WeatherCatV1.21B27,2013-10-05 23:41:00,
2013-10-05 18:46:00,43.8,40.2,29.68,SE,129,0.0,1.0,87,0.00,,,0.00,WeatherCatV1.21B27,2013-10-05 23:46:00,
2013-10-05 18:51:00,43.8,40.2,29.68,SE,129,1.0,2.0,87,0.00,,,0.00,WeatherCatV1.21B27,2013-10-05 23:51:00,
2013-10-05 18:56:00,43.8,39.9,29.68,SSE,168,1.0,3.0,86,0.00,,,0.00,WeatherCatV1.21B27,2013-10-05 23:56:00,
2013-10-05 19:01:00,43.8,39.9,29.68,SE,146,0.0,1.0,86,0.00,,,0.00,WeatherCatV1.21B27,2013-10-06 00:01:00,
2013-10-05 19:06:00,43.8,39.9,29.69,SSE,147,0.0,2.0,86,0.00,,,0.00,WeatherCatV1.21B27,2013-10-06 00:06:00,
2013-10-05 19:11:00,43.7,40.1,29.69,SE,140,0.0,2.0,87,0.00,,,0.00,WeatherCatV1.21B27,2013-10-06 00:11:00,
2013-10-05 19:16:00,43.7,40.1,29.69,SE,140,0.0,0.0,87,0.00,,,0.00,WeatherCatV1.21B27,2013-10-06 00:16:00,
2013-10-05 19:21:00,43.6,40.0,29.69,SE,140,1.0,1.0,87,0.00,,,0.00,WeatherCatV1.21B27,2013-10-06 00:21:00,
2013-10-05 19:26:00,43.5,39.9,29.69,SE,140,0.0,1.0,87,0.00,,,0.00,WeatherCatV1.21B27,2013-10-06 00:26:00,
2013-10-05 19:31:00,43.5,39.9,29.70,SE,140,0.0,2.0,87,0.00,,,0.00,WeatherCatV1.21B27,2013-10-06 00:31:00,
2013-10-05 19:36:00,43.5,39.9,29.70,SE,140,0.0,1.0,87,0.00,,,0.00,WeatherCatV1.21B27,2013-10-06 00:36:00,
2013-10-05 19:41:00,43.5,39.9,29.70,SE,140,1.0,2.0,87,0.00,,,0.00,WeatherCatV1.21B27,2013-10-06 00:41:00,
2013-10-05 19:46:00,43.4,39.8,29.70,SE,140,0.0,1.0,87,0.00,,,0.00,WeatherCatV1.21B27,2013-10-06 00:46:00,
2013-10-05 19:51:00,43.4,39.8,29.70,SE,140,0.0,1.0,87,0.00,,,0.00,WeatherCatV1.21B27,2013-10-06 00:51:00,
2013-10-05 19:56:00,43.4,39.8,29.71,SE,140,1.0,1.0,87,0.00,,,0.00,WeatherCatV1.21B27,2013-10-06 00:56:00,
2013-10-05 20:01:00,43.4,39.8,29.70,SE,140,0.0,1.0,87,0.00,,,0.00,WeatherCatV1.21B27,2013-10-06 01:01:00,
2013-10-05 20:06:00,43.4,39.5,29.70,SSE,153,1.0,4.0,86,0.00,,,0.00,WeatherCatV1.21B27,2013-10-06 01:06:00,
2013-10-05 20:11:00,43.4,39.5,29.70,SSE,153,0.0,3.0,86,0.00,,,0.00,WeatherCatV1.21B27,2013-10-06 01:11:00,
2013-10-05 20:16:00,43.3,39.4,29.70,SSE,153,0.0,0.0,86,0.00,,,0.00,WeatherCatV1.21B27,2013-10-06 01:16:00,
2013-10-05 20:21:00,43.3,39.4,29.71,SSE,153,0.0,1.0,86,0.00,,,0.00,WeatherCatV1.21B27,2013-10-06 01:21:00,
2013-10-05 20:26:00,43.2,39.3,29.71,SSE,153,0.0,0.0,86,0.00,,,0.00,WeatherCatV1.21B27,2013-10-06 01:26:00,
2013-10-05 20:31:00,43.2,39.3,29.71,SSE,153,0.0,1.0,86,0.00,,,0.00,WeatherCatV1.21B27,2013-10-06 01:31:00,
2013-10-05 20:36:00,43.2,39.6,29.72,SSE,153,0.0,0.0,87,0.00,,,0.00,WeatherCatV1.21B27,2013-10-06 01:36:00,
2013-10-05 20:41:00,43.2,39.6,29.72,SSE,153,0.0,1.0,87,0.00,,,0.00,WeatherCatV1.21B27,2013-10-06 01:41:00,
2013-10-05 20:46:00,43.2,39.6,29.72,SSE,153,0.0,0.0,87,0.00,,,0.00,WeatherCatV1.21B27,2013-10-06 01:46:00,
2013-10-05 20:51:00,43.2,39.6,29.72,SSE,153,0.0,3.0,87,0.00,,,0.00,WeatherCatV1.21B27,2013-10-06 01:51:00,
2013-10-05 20:56:00,43.2,39.6,29.72,SSE,153,0.0,0.0,87,0.00,,,0.00,WeatherCatV1.21B27,2013-10-06 01:56:00,
2013-10-05 21:01:00,43.2,39.6,29.73,SSE,153,0.0,0.0,87,0.00,,,0.00,WeatherCatV1.21B27,2013-10-06 02:01:00,
2013-10-05 21:06:00,43.2,39.6,29.73,SSE,153,0.0,1.0,87,0.00,,,0.00,WeatherCatV1.21B27,2013-10-06 02:06:00,
2013-10-05 21:11:00,43.1,39.5,29.73,SSE,153,0.0,0.0,87,0.00,,,0.00,WeatherCatV1.21B27,2013-10-06 02:11:00,
2013-10-05 21:16:00,43.1,39.5,29.73,SSE,153,0.0,0.0,87,0.00,,,0.00,WeatherCatV1.21B27,2013-10-06 02:16:00,
2013-10-05 21:21:00,43.2,39.6,29.73,SSE,153,0.0,0.0,87,0.00,,,0.00,WeatherCatV1.21B27,2013-10-06 02:21:00,
2013-10-05 21:26:00,43.2,39.9,29.73,SSE,153,0.0,0.0,88,0.00,,,0.00,WeatherCatV1.21B27,2013-10-06 02:26:00,
2013-10-05 21:31:00,43.1,39.8,29.73,SSE,153,0.0,0.0,88,0.00,,,0.00,WeatherCatV1.21B27,2013-10-06 02:31:00,
2013-10-05 21:36:00,43.1,39.8,29.74,SSE,153,0.0,0.0,88,0.00,,,0.00,WeatherCatV1.21B27,2013-10-06 02:36:00,
2013-10-05 21:41:00,43.1,39.8,29.74,SSE,153,0.0,0.0,88,0.00,,,0.00,WeatherCatV1.21B27,2013-10-06 02:41:00,
2013-10-05 21:46:00,43.1,39.8,29.74,SSE,153,0.0,0.0,88,0.00,,,0.00,WeatherCatV1.21B27,2013-10-06 02:46:00,
2013-10-05 21:51:00,43.0,39.7,29.75,SSE,153,0.0,0.0,88,0.00,,,0.00,WeatherCatV1.21B27,2013-10-06 02:51:00,
2013-10-05 21:56:00,43.0,39.7,29.74,SSE,153,0.0,0.0,88,0.00,,,0.00,WeatherCatV1.21B27,2013-10-06 02:56:00,
2013-10-05 22:01:00,43.1,39.8,29.74,SSE,153,0.0,0.0,88,0.00,,,0.00,WeatherCatV1.21B27,2013-10-06 03:01:00,
2013-10-05 22:06:00,43.1,40.1,29.74,SSE,153,0.0,1.0,89,0.00,,,0.00,WeatherCatV1.21B27,2013-10-06 03:06:00,
2013-10-05 22:11:00,43.1,40.1,29.74,SSE,153,0.0,0.0,89,0.00,,,0.00,WeatherCatV1.21B27,2013-10-06 03:11:00,
2013-10-05 22:16:00,43.1,40.4,29.74,SSE,153,0.0,0.0,90,0.00,,,0.00,WeatherCatV1.21B27,2013-10-06 03:16:00,
2013-10-05 22:21:00,43.0,40.3,29.74,SSE,153,0.0,1.0,90,0.00,,,0.00,WeatherCatV1.21B27,2013-10-06 03:21:00,
2013-10-05 22:26:00,43.0,40.6,29.75,SSE,153,0.0,1.0,91,0.00,,,0.00,WeatherCatV1.21B27,2013-10-06 03:26:00,
2013-10-05 22:31:00,43.0,40.6,29.75,SSE,153,1.0,3.0,91,0.00,,,0.00,WeatherCatV1.21B27,2013-10-06 03:31:00,
2013-10-05 22:36:00,42.9,40.5,29.75,SSE,153,1.0,1.0,91,0.00,,,0.00,WeatherCatV1.21B27,2013-10-06 03:36:00,
2013-10-05 22:41:00,42.9,40.7,29.75,SSE,153,0.0,2.0,92,0.00,,,0.00,WeatherCatV1.21B27,2013-10-06 03:41:00,
2013-10-05 22:46:00,42.9,40.7,29.75,SSE,153,0.0,1.0,92,0.00,,,0.00,WeatherCatV1.21B27,2013-10-06 03:46:00,
2013-10-05 22:51:00,42.8,40.6,29.75,SSE,153,1.0,1.0,92,0.00,,,0.00,WeatherCatV1.21B27,2013-10-06 03:51:00,
2013-10-05 22:56:00,42.8,40.6,29.75,SSE,153,1.0,2.0,92,0.00,,,0.00,WeatherCatV1.21B27,2013-10-06 03:56:00,
2013-10-05 23:01:00,42.8,40.4,29.75,SSE,153,0.0,1.0,91,0.00,,,0.00,WeatherCatV1.21B27,2013-10-06 04:01:00,
2013-10-05 23:03:00,42.7,40.3,29.75,SSE,153,0.0,1.0,91,0.00,,,0.00,WeatherCatV1.21B27,2013-10-06 04:03:00,
2013-10-05 23:08:00,42.7,40.3,29.75,SSE,153,1.0,2.0,91,0.00,,,0.00,WeatherCatV1.21B27,2013-10-06 04:08:00,
2013-10-05 23:13:00,42.8,40.4,29.75,SSE,153,0.0,2.0,91,0.00,,,0.00,WeatherCatV1.21B27,2013-10-06 04:13:00,
2013-10-05 23:18:00,42.8,40.4,29.75,SSE,153,0.0,3.0,91,0.00,,,0.00,WeatherCatV1.21B27,2013-10-06 04:18:00,
2013-10-05 23:23:00,42.8,40.6,29.76,SSE,153,0.0,2.0,92,0.00,,,0.00,WeatherCatV1.21B27,2013-10-06 04:23:00,
2013-10-05 23:28:00,42.8,40.6,29.76,West,273,3.0,3.0,92,0.00,,,0.00,WeatherCatV1.21B27,2013-10-06 04:28:00,
2013-10-05 23:33:00,42.8,40.6,29.76,West,273,1.0,3.0,92,0.00,,,0.00,WeatherCatV1.21B27,2013-10-06 04:33:00,
2013-10-05 23:38:00,42.8,40.6,29.76,NNW,345,1.0,4.0,92,0.00,,,0.00,WeatherCatV1.21B27,2013-10-06 04:38:00,
2013-10-05 23:43:00,42.9,40.7,29.76,NW,309,1.0,3.0,92,0.00,,,0.00,WeatherCatV1.21B27,2013-10-06 04:43:00,
2013-10-05 23:48:00,42.9,40.7,29.76,NW,322,0.0,2.0,92,0.00,,,0.00,WeatherCatV1.21B27,2013-10-06 04:48:00,
2013-10-05 23:53:00,43.0,40.8,29.77,NW,319,1.0,4.0,92,0.00,,,0.00,WeatherCatV1.21B27,2013-10-06 04:53:00,
2013-10-05 23:58:00,43.0,40.8,29.76,NW,319,3.0,3.0,92,0.00,,,0.00,WeatherCatV1.21B27,2013-10-06 04:58:00,